Denver Centennial, CO

5:21 AM MDT on July 28, 2017 (GMT -0600)
Centennial

Weather History for KAPA - September, 2012

Change the Weather History Date:

Saturday, September 29, 2012

  Actual Average Record
Temperature  
Mean Temperature 60 °F -  
Max Temperature 74 °F 67 °F 84 °F (1998)
Min Temperature 46 °F 40 °F 26 °F (1999)
Degree Days  
Heating Degree Days 5    
Month to date heating degree days 88  
Growing Degree Days 10 (Base 50)    
Moisture  
Dew Point 41 °F    
Average Humidity 58    
Maximum Humidity 93    
Minimum Humidity 22    
Precipitation  
Precipitation 0.00 in - - ()
Month to date precipitation 2.41  
Year to date precipitation 12.79  
Sea Level Pressure  
Sea Level Pressure 30.05 in    
Wind  
Wind Speed 6 mph (ESE)    
Max Wind Speed 14 mph    
Max Gust Speed 17 mph    
Visibility 10 miles    
Events      
Averages and records for this station are not official NWS values.
T = Trace of Precipitation, MM = Missing Value Source: NWS Daily Summary

Daily Weather History Graph

Daily Weather History Graph

Search for Another Location

Airport or City:

Trip Planner

Search our weather history database for the weather conditions in past years. The results will help you decide how hot, cold, wet, or windy it might be!

Date:

Astronomy

Sep. 29, 2012 Rise Set
Actual Time 6:54 AM MDT 6:44 PM MDT
Civil Twilight 6:27 AM MDT 7:10 PM MDT
Nautical Twilight 5:56 AM MDT 7:42 PM MDT
Astronomical Twilight 5:24 AM MDT 8:13 PM MDT
Moon 6:18 PM MDT (9/29) 6:27 AM MDT (9/29)
Length of Visible Light 12h 43m
Length of Day
11h 50m
Full, 100% of the Moon is Illuminated
Sep 29
Full
Sep 29
Full
Oct 8
Last Quarter
Oct 15
New
Oct 21
First Quarter

Hourly Weather History & Observations

Time (MDT) Temp. Dew Point Humidity Pressure Visibility Wind Dir Wind Speed Gust Speed Precip Events Conditions
12:53 AM 54.0 °F 46.9 °F 77% 30.07 in 10.0 mi SSE 6.9 mph - N/A   Partly Cloudy
1:53 AM 53.1 °F 46.9 °F 80% 30.07 in 10.0 mi SSE 11.5 mph - N/A   Partly Cloudy
2:53 AM 52.0 °F 46.9 °F 83% 30.06 in 10.0 mi SSE 9.2 mph - N/A   Partly Cloudy
3:53 AM 51.1 °F 46.0 °F 83% 30.06 in 10.0 mi SSE 5.8 mph - N/A   Partly Cloudy
4:53 AM 50.0 °F 46.0 °F 86% 30.06 in 10.0 mi SSE 6.9 mph - N/A   Clear
5:53 AM 48.0 °F 45.0 °F 89% 30.08 in 10.0 mi SSE 5.8 mph - N/A   Clear
6:53 AM 46.9 °F 44.1 °F 90% 30.11 in 10.0 mi SSE 5.8 mph - N/A   Clear
7:53 AM 51.1 °F 46.0 °F 83% 30.10 in 10.0 mi Calm Calm - N/A   Clear
8:53 AM 57.9 °F 46.0 °F 65% 30.08 in 10.0 mi Calm Calm - N/A   Clear
9:53 AM 63.0 °F 42.1 °F 46% 30.08 in 10.0 mi West 5.8 mph - N/A   Clear
10:53 AM 66.9 °F 39.9 °F 37% 30.06 in 10.0 mi Calm Calm - N/A   Partly Cloudy
11:53 AM 70.0 °F 39.0 °F 32% 30.05 in 10.0 mi Calm Calm - N/A   Partly Cloudy
12:53 PM 72.0 °F 35.1 °F 26% 30.03 in 10.0 mi NNE 10.4 mph - N/A   Partly Cloudy
1:53 PM 73.9 °F 35.1 °F 24% 30.00 in 10.0 mi NE 9.2 mph - N/A   Partly Cloudy
2:53 PM 73.9 °F 33.1 °F 22% 29.99 in 10.0 mi NNE 8.1 mph - N/A   Partly Cloudy
3:53 PM 73.9 °F 32.0 °F 21% 29.98 in 10.0 mi ENE 6.9 mph - N/A   Partly Cloudy
4:53 PM 73.9 °F 33.1 °F 22% 29.98 in 10.0 mi ENE 5.8 mph - N/A   Partly Cloudy
5:53 PM 72.0 °F 34.0 °F 25% 30.00 in 10.0 mi NE 3.5 mph - N/A   Partly Cloudy
6:53 PM 68.0 °F 34.0 °F 28% 30.03 in 10.0 mi Calm Calm - N/A   Partly Cloudy
7:53 PM 64.9 °F 36.0 °F 34% 30.04 in 10.0 mi Calm Calm - N/A   Partly Cloudy
8:53 PM 59.0 °F 42.1 °F 53% 30.06 in 10.0 mi South 8.1 mph - N/A   Scattered Clouds
9:53 PM 60.1 °F 48.0 °F 64% 30.07 in 10.0 mi NNE 8.1 mph - N/A   Mostly Cloudy
10:53 PM 55.0 °F 46.9 °F 74% 30.08 in 10.0 mi Calm Calm - N/A   Scattered Clouds
11:53 PM 55.0 °F 46.0 °F 72% 30.06 in 10.0 mi West 4.6 mph - N/A   Scattered Clouds